Helicity
8 21 33 40 33 34 44 49 52 40 10 6 32 48 32 -2 20 14 113 130 154 192 138 105 119 164 219 231 243 313 177 114 98 99 137 128 101 96 110 165 168 160 201 169 54
13 19 25 58 49 54 44 46 69 50 23 5 26 30 28 -20 10 10 22 206 286 161 139 105 137 189 247 206 222 251 187 100 124 131 150 131 113 123 125 166 229 213 247 208 85
17 19 20 51 67 61 48 44 54 51 35 16 19 32 38 11 -1 54 -8 200 255 152 157 134 144 182 244 207 226 198 143 142 289 216 163 128 96 111 129 187 210 291 303 270 165
29 23 27 52 69 57 51 25 32 32 28 22 19 15 28 21 13 32 -7 252 287 140 80 150 135 189 220 159 225 159 196 199 192 255 209 145 115 103 130 110 182 213 150 175 130
41 39 35 40 56 47 48 23 8 9 10 18 16 -4 1 12 26 29 87 108 266 117 69 116 160 183 218 157 199 198 139 174 172 158 159 81 92 77 103 79 106 229 157 225 146
46 57 34 38 43 37 42 40 11 -1 -1 14 14 19 14 26 39 55 117 65 188 106 102 88 81 160 176 138 148 182 138 112 118 120 112 97 80 -33 20 96 140 212 234 286 214
38 51 44 27 32 31 28 37 20 -0 -0 11 17 39 27 7 52 70 77 78 129 93 98 102 98 155 186 144 175 131 192 190 185 129 57 23 53 10 -38 24 48 173 191 280 269
39 40 49 37 26 19 19 30 33 19 6 10 20 34 23 -0 38 76 88 83 144 104 90 59 110 137 179 189 211 147 175 129 152 130 141 102 14 36 -41 -88 -0 141 206 262 252
46 45 44 38 34 19 7 41 36 32 19 7 25 26 18 17 59 58 75 99 158 118 66 61 130 145 180 167 235 198 145 159 160 127 111 136 12 72 52 -54 -82 97 207 235 232
44 54 46 41 41 30 13 49 49 52 30 13 42 29 13 52 46 66 129 117 128 139 113 52 150 149 167 195 167 218 173 168 134 93 111 91 80 129 25 -24 30 111 136 212 253
37 51 59 55 46 45 59 59 66 33 35 32 27 32 46 74 34 32 86 101 139 140 73 110 135 132 147 159 147 181 157 117 109 92 127 78 83 99 13 12 27 145 128 222 280
35 48 60 72 61 77 92 131 94 38 54 54 26 38 53 63 13 46 54 104 138 103 124 116 78 114 132 134 137 178 144 110 104 58 66 104 74 88 38 25 -47 93 243 218 249
31 43 61 76 64 104 128 119 33 24 81 53 50 38 48 49 8 67 83 182 121 67 146 139 81 85 135 156 164 178 134 125 79 93 107 92 100 73 62 58 40 53 244 241 196
29 43 68 81 107 104 114 71 28 1 111 85 60 42 51 56 48 63 137 169 143 79 80 135 93 107 120 132 122 132 108 100 99 110 97 130 120 40 69 57 35 98 107 119 109
23 52 81 99 114 105 90 51 8 15 166 68 56 30 42 30 26 56 164 161 88 66 58 34 73 83 107 97 104 122 99 78 100 115 119 129 85 -1 68 14 47 87 46 -11 52
25 67 109 87 81 74 90 55 21 113 110 66 38 17 40 37 9 21 138 127 133 65 123 91 112 97 75 130 126 61 141 147 115 106 51 90 110 -39 26 53 74 72 99 48 54
35 79 86 73 87 96 79 68 95 148 54 57 46 40 10 -3 8 44 126 77 -1 99 109 92 122 112 110 141 143 118 138 120 112 98 10 72 93 41 -1 43 70 54 53 80 69
67 107 64 56 76 92 64 65 89 86 46 47 41 40 36 6 -25 38 68 -15 96 71 103 150 124 98 88 79 84 101 113 130 89 65 55 112 -12 -5 11 -2 30 9 46 77 77
90 76 42 43 82 71 73 55 103 114 67 57 47 36 47 11 -18 -20 19 31 70 73 88 99 95 97 86 104 119 89 91 96 90 84 58 55 64 27 -9 16 31 43 50 40 45
48 72 45 56 76 76 66 52 81 67 75 78 67 73 31 40 -9 -16 -19 47 69 63 74 37 87 100 100 83 124 93 133 118 132 54 26 41 29 44 3 23 65 78 57 18 42
10 41 51 75 65 57 39 39 59 76 82 101 74 48 35 23 26 -27 -22 52 57 79 103 89 103 93 104 107 118 155 143 153 132 122 54 14 26 -7 23 92 151 95 16 7 43
23 34 62 72 35 39 53 68 65 69 96 79 59 53 45 16 -0 -37 -41 41 39 129 92 86 111 103 101 96 110 119 105 126 130 69 116 86 49 59 30 -1 -8 -22 7 10 36
48 40 9 52 59 30 19 38 63 94 100 129 123 84 64 54 22 -5 31 56 67 93 86 124 91 133 64 115 130 119 144 162 185 145 80 83 23 74 123 55 40 47 20 -16 43
62 55 21 60 49 67 51 68 69 86 130 116 126 127 122 81 61 11 51 48 54 73 73 117 125 123 93 57 88 139 134 136 156 153 115 98 102 75 13 22 22 -3 -35 -34 9
38 56 59 86 94 110 97 116 129 140 139 176 210 217 160 143 77 55 36 81 65 61 85 61 67 103 105 100 90 75 87 119 144 116 153 62 26 79 50 31 15 -67 -6 3 67
81 83 77 105 119 137 131 158 174 185 241 276 336 234 189 197 113 62 97 102 80 113 120 119 67 70 91 80 64 75 75 93 100 90 64 44 78 53 123 150 61 26 46 57 61
57 87 121 102 139 149 134 181 222 248 216 285 354 361 160 127 48 26 99 74 45 64 120 133 101 71 40 76 51 -20 19 129 155 178 187 86 143 131 119 112 114 127 121 97 133
Wind_Speed
59 60 61 64 62 59 56 52 48 43 37 36 45 44 42 35 34 34 47 45 48 46 38 46 47 44 47 53 53 50 72 90 83 72 65 51 53 43 36 42 34 34 39 48 34
57 61 60 62 64 61 59 55 52 47 41 36 43 41 38 35 38 44 42 51 51 46 40 40 52 44 54 58 55 63 79 76 64 57 62 52 51 47 44 41 42 39 38 40 33
56 60 59 59 60 60 59 55 52 50 45 37 41 41 35 31 40 40 41 46 45 47 40 40 46 48 52 58 60 66 76 54 56 47 45 52 55 47 46 52 44 47 47 46 43
54 56 58 57 57 58 58 55 52 50 47 42 37 40 32 32 39 32 26 46 50 43 39 41 47 48 60 58 59 62 60 55 49 48 46 54 50 61 52 49 44 42 43 47 49
51 52 55 53 53 57 55 52 49 47 47 45 40 38 32 29 35 36 34 37 46 43 43 38 51 47 57 52 56 63 61 51 44 41 43 43 58 67 65 51 45 47 44 43 54
48 49 49 47 49 52 53 51 45 43 42 42 41 36 37 28 38 39 34 31 39 43 47 37 46 43 52 53 51 54 52 56 54 49 46 55 61 62 62 57 58 54 52 50 52
46 45 43 43 43 48 48 46 44 40 39 38 39 37 41 31 35 38 35 31 36 47 48 39 38 37 43 47 39 44 50 48 53 53 55 50 79 88 66 70 72 66 59 56 54
45 41 40 38 38 42 46 42 41 39 37 37 37 35 37 29 30 30 33 32 29 39 45 37 32 35 45 38 37 44 48 57 53 49 50 48 85 76 67 77 83 77 68 62 61
44 41 37 35 34 35 40 41 42 42 38 37 38 38 38 23 25 30 29 31 34 38 37 29 33 38 40 43 48 45 54 55 49 47 47 51 70 70 63 77 97 81 76 71 66
41 40 35 32 31 31 32 37 38 44 42 36 39 39 38 22 24 28 27 27 36 42 39 32 36 40 41 53 63 52 45 48 49 50 46 50 64 52 57 63 89 89 82 78 72
40 40 35 32 31 29 33 35 42 48 60 56 48 44 36 20 21 22 27 37 35 42 59 40 47 53 43 46 45 45 43 46 45 43 45 54 61 64 60 61 73 94 92 85 76
38 39 36 34 33 32 35 43 41 40 59 51 47 43 37 25 19 21 27 36 34 41 45 42 48 44 40 38 38 41 42 47 49 44 39 51 63 59 60 62 53 82 91 85 74
37 38 37 36 34 39 42 39 34 35 51 55 48 45 40 23 20 23 29 34 26 38 37 43 48 34 39 34 39 45 48 45 43 39 42 46 67 68 64 68 69 59 89 86 74
36 37 38 40 45 43 44 34 33 33 55 61 51 42 37 29 23 26 32 33 31 35 36 38 35 32 48 44 39 46 45 45 37 40 52 41 65 64 77 74 84 80 79 90 82
36 39 41 42 46 48 42 36 34 36 77 45 48 38 37 44 34 25 33 28 26 26 34 36 37 36 39 43 42 43 36 39 44 44 44 48 57 62 59 76 81 80 83 88 82
36 38 43 45 46 45 43 41 39 58 74 51 40 42 42 41 28 31 36 31 33 23 29 34 33 32 36 31 34 27 31 31 36 39 63 59 52 66 68 69 68 72 76 89 90
36 40 45 44 49 43 42 44 60 74 46 52 45 39 38 40 16 26 36 26 20 15 26 33 31 33 34 33 35 39 37 45 50 49 55 36 47 70 55 51 48 57 63 66 75
41 46 46 46 44 43 44 52 73 56 52 43 38 35 37 38 33 19 13 10 38 29 26 32 39 31 36 40 39 41 43 44 52 53 52 42 52 44 50 50 51 50 47 43 53
41 44 48 45 42 43 51 69 61 51 45 45 40 39 35 31 31 23 9 16 34 32 29 28 36 35 32 33 34 41 53 40 43 44 50 46 50 59 61 59 52 52 51 56 52
37 42 47 43 41 47 56 61 53 44 41 40 44 34 34 28 29 28 17 14 26 35 28 30 29 38 35 32 34 36 26 47 49 59 62 51 50 48 40 39 42 50 58 64 58
37 43 42 41 43 51 63 56 48 40 38 39 40 35 28 24 21 21 17 21 32 25 31 27 33 33 32 45 42 39 43 43 47 54 54 58 55 43 39 36 48 57 58 56 50
39 45 40 40 52 53 56 49 45 44 39 36 33 30 28 21 12 10 7 24 12 22 35 35 35 41 40 37 42 44 41 40 54 55 56 64 75 51 49 55 52 52 52 44 34
41 41 35 40 54 54 50 47 43 46 43 41 36 29 27 22 16 4 29 45 26 23 26 30 41 41 41 47 47 49 46 44 53 55 64 62 53 34 33 35 36 42 47 40 27
39 43 40 43 44 46 52 50 50 42 42 38 35 34 32 24 11 7 29 44 38 39 32 28 44 52 53 44 32 46 50 48 50 62 70 84 81 82 75 70 63 56 46 38 26
43 39 39 43 43 43 44 46 50 52 43 45 42 43 40 36 24 13 16 45 43 43 41 34 50 49 49 44 42 47 46 40 47 61 74 81 96 88 93 84 70 65 53 32 21
38 39 40 41 41 41 42 44 46 49 47 51 48 45 42 36 28 21 25 42 51 43 40 46 54 48 56 55 54 61 54 41 36 46 81 95 102 85 83 73 77 73 58 44 27
34 36 39 44 43 45 48 48 47 52 47 44 50 54 47 41 26 24 56 68 60 50 45 44 50 51 58 49 56 73 73 27 45 44 34 84 87 74 75 67 69 73 58 35 25
Wind_Direction
26 25 26 25 27 31 35 37 38 45 49 42 354 324 304 272 262 274 251 249 248 251 262 238 238 234 232 233 236 237 234 234 237 238 240 245 245 256 265 260 260 264 265 264 256
27 26 28 30 30 34 35 38 44 47 48 48 9 318 305 266 259 257 268 250 252 250 249 237 229 227 228 230 233 231 233 239 240 244 241 245 244 248 250 251 252 262 277 272 248
28 28 29 32 33 33 34 39 43 45 48 55 26 324 302 275 255 257 266 251 254 250 243 240 233 227 230 229 231 233 234 240 240 245 245 246 245 249 249 246 254 262 270 263 250
30 30 31 35 35 33 34 38 43 46 51 56 56 338 304 274 253 264 293 254 252 245 233 234 227 224 227 228 229 233 237 240 241 245 248 246 249 245 247 248 264 271 277 264 250
32 32 33 36 36 34 37 39 44 49 53 57 65 13 338 285 255 254 263 265 248 230 226 230 223 226 225 232 229 234 235 240 242 246 250 253 250 246 245 254 264 272 276 273 254
32 33 34 37 37 36 37 40 45 49 53 57 60 71 27 306 261 253 264 263 242 225 222 230 227 231 228 230 232 233 239 238 242 249 257 254 253 249 246 255 258 269 270 269 261
32 34 35 37 39 37 36 41 45 48 51 56 57 67 54 309 270 258 257 259 242 222 220 232 234 234 229 227 239 231 235 243 245 251 255 264 253 245 251 254 254 259 268 268 265
32 35 36 37 40 39 36 43 46 48 50 55 57 68 65 281 275 258 252 252 243 222 225 232 239 236 228 239 237 232 237 240 248 250 257 261 250 250 254 252 249 253 260 265 262
34 36 37 39 42 41 40 48 51 51 53 58 62 70 71 245 272 259 260 236 230 221 223 234 240 233 232 226 227 234 236 238 246 250 258 256 257 260 258 253 245 250 255 258 261
35 36 38 42 46 46 48 53 55 52 54 63 67 70 78 197 232 250 246 228 217 215 215 233 231 227 232 227 225 232 240 243 246 250 257 257 259 266 257 256 243 245 251 254 257
35 36 40 45 48 53 59 57 51 51 50 53 57 70 103 212 226 231 228 214 218 214 210 233 225 222 229 234 242 240 246 246 253 260 256 259 261 259 258 260 245 243 246 250 250
36 37 42 48 53 60 62 54 63 65 50 60 64 78 111 182 225 223 214 206 218 203 215 230 231 228 229 241 238 238 242 247 253 264 258 264 261 263 256 256 253 244 244 246 249
37 40 44 51 57 58 57 67 78 79 56 57 66 79 107 179 208 217 213 209 210 210 220 234 248 227 231 239 237 242 241 247 257 261 263 271 263 257 256 253 249 254 246 247 249
39 43 49 55 54 55 54 81 84 86 53 51 63 83 116 170 199 210 212 216 224 215 226 251 243 225 229 240 244 242 248 248 259 260 260 272 263 258 249 251 247 247 244 242 246
40 47 52 59 55 50 60 80 89 84 41 58 68 96 120 127 186 222 213 220 215 213 243 248 231 226 232 241 243 246 252 253 257 264 272 269 271 263 261 253 250 250 249 249 250
46 55 59 58 55 57 71 76 80 52 45 59 75 82 94 119 198 212 215 217 204 246 259 247 236 241 243 245 248 248 251 261 267 271 263 266 276 261 258 259 259 255 254 247 251
57 64 58 62 52 66 67 61 47 43 60 54 67 85 92 103 166 233 223 223 232 272 248 230 242 249 248 246 254 250 249 254 259 264 265 286 278 256 268 271 270 263 263 260 256
69 67 60 59 64 64 57 50 42 50 55 67 75 87 88 99 97 302 271 217 238 249 256 253 247 250 252 253 253 248 250 255 257 262 268 280 271 277 271 277 276 280 282 280 269
77 61 55 55 63 58 50 43 45 51 59 56 64 65 79 98 102 89 308 263 248 256 267 267 261 258 268 265 258 255 250 263 270 276 273 274 272 261 261 269 280 283 284 277 278
68 57 51 56 64 53 47 45 49 57 58 56 47 64 59 87 107 108 118 277 257 253 271 269 274 261 262 264 268 267 263 260 263 263 264 274 274 273 280 293 288 287 279 270 275
62 47 52 59 58 50 42 45 47 54 55 50 45 47 56 77 105 111 88 299 259 262 265 274 277 273 269 263 263 267 265 270 269 267 272 272 272 282 288 292 295 290 289 285 284
51 35 54 57 42 43 41 44 45 45 48 42 44 41 40 52 81 89 62 300 288 267 267 269 278 269 271 279 273 271 269 268 265 268 271 272 268 278 285 291 296 300 301 303 302
39 43 54 52 33 35 37 40 41 39 37 37 34 35 36 28 24 85 309 282 283 273 275 265 271 268 273 275 273 269 266 269 272 275 270 272 276 280 295 303 309 309 310 317 320
38 30 37 40 41 35 30 32 30 33 29 29 23 20 13 1 356 347 312 285 275 272 277 273 271 267 267 277 283 271 268 266 268 269 268 262 266 259 270 285 287 295 307 314 317
29 31 33 24 28 30 27 24 22 21 24 20 18 14 4 357 350 321 290 284 278 271 269 277 272 270 270 275 281 280 279 273 265 270 268 269 262 273 273 278 281 285 294 306 301
26 28 27 22 22 22 21 18 14 14 13 7 3 356 354 344 339 330 324 285 272 268 265 267 270 275 269 272 276 274 279 282 276 277 269 263 258 276 275 279 276 277 287 292 292
31 31 23 14 16 12 11 13 12 9 7 3 360 355 341 334 327 319 292 272 268 268 262 264 267 271 269 276 272 254 254 258 282 284 274 264 257 278 275 278 275 265 286 288 275